Flag for Germany Weather past 2 weeks in Hamburg, Hamburg, Germany

Now
64 °F

Sunny.


Feels Like: 64 °F
Forecast: 54 / 71 °F
Wind: 5 mph from Northeast

Location: Hamburg-Fuhlsbuettel

Current Time: Jul 12, 2014 at 10:50:24 PM

Latest Report: Jul 12, 2014 at 10:20 PM


Visibility: 10 mi

Pressure: 29.86 "Hg

Humidity: 68%

Dew point: 54 °F

Location of HamburgLocation

Historic Weather in Hamburg — Graph

°F

Hamburg temperature yesterday

Maximum temperature yesterday: 75 °F (at 12:50 PM)
Minimum temperature yesterday: 63 °F (at 3:20 AM)
Average temperature yesterday: 69 °F

Past Weeks' High & Low Weather Summary

 TemperatureHumidityPressure
High84 °F (Jul 9, 2:50 PM)100% (Jun 29, 4:20 AM)30.18 "Hg (Jun 29, 4:20 AM)
Low50 °F (Jun 30, 5:20 AM)30% (Jul 4, 2:20 PM)29.59 "Hg (Jul 9, 2:50 PM)
Average65 °F74%29.89 "Hg
* Reported Jun 27 9:20 PM — Jul 12 9:50 PM, Hamburg, Weather by CustomWeather, © 2014

Note: Actual official high and low records may vary slightly from our data, if they occured in-between our weather recording intervals... More about our weather records

Advertising

Hamburg weather history for previous 24 hours

 ConditionsComfort  
Time TempWeatherWind HumidityBarometerVisibility
9:50 PM
Jul 12
63 °FSunny.3 mph73%29.86 "Hg10 mi
9:20 PM64 °FScattered clouds.6 mph68%29.86 "HgN/A
8:50 PM66 °FScattered clouds.8 mph60%29.86 "HgN/A
8:20 PM66 °FScattered clouds.10 mph60%29.86 "HgN/A
7:50 PM68 °FScattered clouds.14 mph53%29.86 "HgN/A
7:20 PM70 °FScattered clouds.9 mph50%29.86 "HgN/A
6:20 PM70 °FScattered clouds.13 mph53%29.86 "HgN/A
5:50 PM70 °FScattered clouds.9 mph50%29.86 "HgN/A
5:20 PM72 °FScattered clouds.12 mph53%29.86 "HgN/A
4:20 PM72 °FScattered clouds.10 mph53%29.89 "HgN/A
3:50 PM70 °FScattered clouds.9 mph53%29.89 "HgN/A
3:20 PM72 °FScattered clouds.9 mph50%29.89 "HgN/A
2:20 PM70 °FScattered clouds.9 mph53%29.89 "HgN/A
1:50 PM72 °FScattered clouds.8 mph47%29.89 "HgN/A
1:20 PM70 °FScattered clouds.7 mph50%29.92 "HgN/A
12:50 PM70 °FScattered clouds.7 mph53%29.92 "HgN/A
12:20 PM70 °FScattered clouds.10 mph53%29.92 "HgN/A
11:50 AM68 °FScattered clouds.7 mph53%29.92 "HgN/A
11:20 AM68 °FScattered clouds.9 mph56%29.95 "HgN/A
10:50 AM66 °FScattered clouds.8 mph60%29.95 "HgN/A
10:20 AM66 °FScattered clouds.10 mph56%29.95 "HgN/A
9:50 AM64 °FScattered clouds.7 mph60%29.95 "HgN/A
9:20 AM64 °FScattered clouds.9 mph64%29.95 "HgN/A
8:50 AM64 °FPassing clouds.8 mph68%29.95 "HgN/A
8:20 AM64 °FScattered clouds.9 mph73%29.95 "HgN/A
7:50 AM64 °FScattered clouds.7 mph73%29.95 "HgN/A
7:20 AM63 °FPartly sunny.8 mph77%29.95 "HgN/A
6:50 AM63 °FBroken clouds.7 mph77%29.95 "HgN/A
6:20 AM59 °FSunny.6 mph88%29.95 "Hg10 mi
5:50 AM57 °FClear.5 mph94%29.95 "Hg10 mi
5:20 AM57 °FClear.5 mph88%29.95 "Hg10 mi
4:50 AM55 °FClear.6 mph94%29.95 "Hg10 mi
4:20 AM55 °FPassing clouds.6 mph94%29.95 "HgN/A
3:50 AM55 °FClear.6 mph94%29.95 "Hg10 mi
3:20 AM55 °FClear.5 mph94%29.98 "Hg10 mi
2:50 AM55 °FPassing clouds.3 mph94%29.98 "HgN/A
2:20 AM57 °FPassing clouds.5 mph94%29.98 "HgN/A
1:50 AM59 °FPassing clouds.6 mph88%29.98 "HgN/A
1:20 AM59 °FClear.6 mph88%29.98 "Hg10 mi
12:50 AM61 °FPassing clouds.7 mph83%29.98 "HgN/A
12:20 AM61 °FPassing clouds.5 mph83%29.98 "HgN/A
11:50 PM
Jul 11
63 °FPassing clouds.7 mph83%29.98 "HgN/A
11:20 PM63 °FPassing clouds.6 mph77%29.98 "HgN/A
10:50 PM64 °FPassing clouds.6 mph68%29.98 "HgN/A
10:20 PM64 °FPassing clouds.5 mph64%29.98 "HgN/A
Weather by CustomWeather, © 2014

See weather overviewHow to use our weather pages